Flag for Libya Weather past 2 weeks in Tripoli, Libya

Now
55 °F

Scattered clouds.


Feels Like: 52 °F
Forecast: 54 / 66 °F
Wind: 12 mph from Northwest

Location: Djerba Mellita

Current Time: Jan 29, 2015 at 10:36:05 AM

Latest Report: Jan 29, 2015 at 10:00 AM


Visibility: 5 mi

Pressure: 30.01 "Hg

Humidity: 59%

Dew point: 41 °F

Location of TripoliLocation

Historic Weather in Tripoli — Graph

°F

Tripoli temperature yesterday

Maximum temperature yesterday: 59 °F (at 4:30 PM)
Minimum temperature yesterday: 52 °F (at 10:30 AM)
Average temperature yesterday: 55 °F

Past Weeks' High & Low Weather Summary

 TemperatureHumidityPressure
High68 °F (Jan 15, 5:00 PM)100% (Jan 18, 12:00 AM)30.33 "Hg (Jan 18, 12:00 AM)
Low45 °F (Jan 17, 6:30 AM)28% (Jan 21, 4:00 PM)29.74 "Hg (Jan 22, 3:00 PM)
Average56 °F62%29.98 "Hg
* Reported Jan 14 9:00 AM — Jan 29 9:30 AM, Tripoli, Weather by CustomWeather, © 2014

Note: Actual official high and low records may vary slightly from our data, if they occured in-between our weather recording intervals... More about our weather records

Advertising

Tripoli weather history for previous 24 hours

 ConditionsComfort  
Time TempWeatherWind HumidityBarometerVisibility
9:30 AM
Jan 29
54 °FScattered clouds.13 mph63%30.01 "Hg5 mi
9:00 AM55 °FScattered clouds.14 mph59%30.01 "Hg5 mi
8:30 AM54 °FScattered clouds.16 mph63%29.98 "Hg5 mi
8:00 AM54 °FPassing clouds.18 mph63%29.98 "Hg5 mi
7:30 AM54 °FPassing clouds.17 mph63%29.98 "Hg5 mi
7:00 AM54 °FPassing clouds.16 mph58%29.98 "Hg5 mi
6:30 AM54 °FPassing clouds.13 mph63%29.98 "Hg5 mi
6:00 AM54 °FPassing clouds.16 mph63%29.98 "Hg5 mi
5:30 AM54 °FPassing clouds.17 mph58%29.98 "Hg5 mi
5:00 AM54 °FPassing clouds.17 mph63%29.98 "Hg5 mi
4:30 AM54 °FPassing clouds.14 mph63%29.98 "Hg5 mi
4:00 AM54 °FPassing clouds.14 mph63%30.01 "Hg5 mi
3:30 AM54 °FPassing clouds.17 mph63%30.01 "Hg5 mi
3:00 AM54 °FPassing clouds.14 mph63%30.01 "Hg5 mi
2:30 AM54 °FPassing clouds.15 mph63%30.01 "Hg5 mi
2:00 AM54 °FPassing clouds.15 mph58%30.01 "HgN/A
1:30 AM54 °FPassing clouds.15 mph58%30.01 "HgN/A
1:00 AM54 °FPassing clouds.16 mph63%30.01 "HgN/A
12:30 AM54 °FPassing clouds.15 mph63%30.01 "HgN/A
12:00 AM54 °FPassing clouds.16 mph58%30.01 "HgN/A
11:30 PM
Jan 28
55 °FPassing clouds.15 mph55%30.01 "HgN/A
11:00 PM55 °FPassing clouds.16 mph51%30.01 "HgN/A
10:30 PM55 °FPassing clouds.15 mph51%30.01 "HgN/A
10:00 PM55 °FPassing clouds.17 mph55%30.01 "HgN/A
9:30 PM55 °FPassing clouds.16 mph55%30.01 "HgN/A
9:00 PM55 °FPassing clouds.20 mph55%29.98 "HgN/A
8:00 PM55 °FPassing clouds.16 mph59%29.98 "HgN/A
7:30 PM55 °FPassing clouds.20 mph63%29.98 "HgN/A
7:00 PM55 °FPassing clouds.20 mph63%29.95 "HgN/A
6:30 PM55 °FScattered clouds.18 mph67%29.95 "HgN/A
6:00 PM59 °FScattered clouds.16 mph55%29.95 "HgN/A
5:30 PM59 °FScattered clouds.15 mph55%29.95 "HgN/A
5:00 PM59 °FScattered clouds.18 mph48%29.92 "HgN/A
4:30 PM59 °FScattered clouds.18 mph51%29.92 "HgN/A
4:00 PM57 °FScattered clouds.21 mph51%29.92 "HgN/A
3:30 PM57 °FScattered clouds.21 mph55%29.92 "HgN/A
3:00 PM57 °FScattered clouds.20 mph55%29.92 "HgN/A
2:30 PM57 °FScattered clouds.22 mph51%29.95 "HgN/A
2:00 PM57 °FScattered clouds.18 mph55%29.95 "HgN/A
1:30 PM57 °FScattered clouds.21 mph55%29.98 "HgN/A
1:00 PM55 °FScattered clouds.21 mph59%29.98 "HgN/A
12:00 PM57 °FScattered clouds.26 mph59%30.01 "HgN/A
11:30 AM54 °FScattered clouds.25 mph63%29.98 "Hg5 mi
11:00 AM54 °FScattered clouds.18 mph58%30.01 "Hg5 mi
10:30 AM52 °FRain. Scattered clouds.20 mph67%30.01 "Hg5 mi
10:00 AM54 °FScattered clouds.21 mph63%30.01 "Hg5 mi
Weather by CustomWeather, © 2014

See weather overviewHow to use our weather pages